Time,TemperatureF,DewpointF,PressureIn,WindDirection,WindDirectionDegrees,WindSpeedMPH,WindSpeedGustMPH,Humidity,HourlyPrecipIn,Conditions,Clouds,dailyrainin,SoftwareType,DateUTC
2013-07-11 00:00:00,64.5,58.9,29.92,NW,311,0.0,1.0,82,0.00, +TSGR FG,SKC,-99.99,VWS V12.07,2013-07-11 05:00:00,
2013-07-11 00:05:00,64.7,59.1,29.92,NW,311,2.0,2.0,82,0.00, +TSGR FG,SKC,-99.99,VWS V12.07,2013-07-11 05:05:00,
2013-07-11 00:10:00,64.9,58.9,29.92,NNW,339,0.0,0.0,81,0.00, +TSGR FG,SKC,-99.99,VWS V12.07,2013-07-11 05:10:00,
2013-07-11 00:15:00,65.0,58.7,29.92,NNW,346,0.0,3.0,80,0.00, +TSGR FG,SKC,-99.99,VWS V12.07,2013-07-11 05:15:00,
2013-07-11 00:25:00,65.0,58.7,29.92,NNW,346,0.0,0.0,80,0.00, +TSGR FG,SKC,-99.99,VWS V12.07,2013-07-11 05:25:00,
2013-07-11 00:35:00,64.8,58.5,29.92,NNW,346,0.0,0.0,80,0.00, +TSGR FG,SKC,-99.99,VWS V12.07,2013-07-11 05:35:00,
2013-07-11 00:40:00,64.7,58.7,29.92,NNW,346,0.0,0.0,81,0.00, +TSGR FG,SKC,-99.99,VWS V12.07,2013-07-11 05:40:00,
2013-07-11 00:50:00,64.4,58.8,29.93,NNW,346,0.0,1.0,82,0.00, +TSGR FG,SKC,-99.99,VWS V12.07,2013-07-11 05:50:00,
2013-07-11 00:55:00,64.2,58.3,29.93,NNW,346,0.0,0.0,81,0.00, +TSGR FG,SKC,-99.99,VWS V12.07,2013-07-11 05:55:00,
2013-07-11 01:00:00,64.0,58.4,29.93,NNW,346,0.0,0.0,82,0.00, +TSGR FG,SKC,-99.99,VWS V12.07,2013-07-11 06:00:00,
2013-07-11 01:05:00,63.8,58.2,29.94,NNW,346,0.0,0.0,82,0.00, +TSGR FG,SKC,-99.99,VWS V12.07,2013-07-11 06:05:00,
2013-07-11 01:15:00,63.3,58.7,29.94,NNW,346,0.0,0.0,85,0.00, +TSGR FG,SKC,-99.99,VWS V12.07,2013-07-11 06:15:00,
2013-07-11 01:25:00,62.7,58.5,29.94,NNW,346,0.0,0.0,86,0.00, +TSGR FG,SKC,-99.99,VWS V12.07,2013-07-11 06:25:00,
2013-07-11 01:30:00,62.4,58.2,29.94,NNW,346,0.0,0.0,86,0.00, +TSGR FG,SKC,-99.99,VWS V12.07,2013-07-11 06:30:00,
2013-07-11 01:40:00,61.8,57.9,29.94,NNW,346,0.0,0.0,87,0.00, +TSGR FG,SKC,-99.99,VWS V12.07,2013-07-11 06:40:00,
2013-07-11 01:45:00,61.4,57.8,29.95,NNW,346,0.0,0.0,88,0.00, +TSGR FG,SKC,-99.99,VWS V12.07,2013-07-11 06:45:00,
2013-07-11 01:50:00,61.3,58.0,29.95,NNW,346,0.0,0.0,89,0.00, +TSGR FG,SKC,-99.99,VWS V12.07,2013-07-11 06:50:00,
2013-07-11 01:55:00,61.2,57.9,29.95,NNW,346,0.0,0.0,89,0.00, +TSGR FG,SKC,-99.99,VWS V12.07,2013-07-11 06:55:00,
2013-07-11 02:00:00,61.0,58.0,29.95,NNW,346,0.0,0.0,90,0.00, +TSGR FG,SKC,-99.99,VWS V12.07,2013-07-11 07:00:00,
2013-07-11 02:05:00,60.9,58.0,29.95,NNW,346,0.0,0.0,90,0.00, +TSGR FG,SKC,-99.99,VWS V12.07,2013-07-11 07:05:00,
2013-07-11 02:10:00,60.7,58.1,29.95,NNW,346,0.0,0.0,91,0.00, +TSGR FG,SKC,-99.99,VWS V12.07,2013-07-11 07:10:00,
2013-07-11 02:15:00,60.5,57.9,29.95,NNW,346,0.0,0.0,91,0.00, +TSGR FG,SKC,-99.99,VWS V12.07,2013-07-11 07:15:00,
2013-07-11 02:20:00,60.4,57.8,29.95,NNW,346,0.0,0.0,91,0.00, +TSGR FG,SKC,-99.99,VWS V12.07,2013-07-11 07:20:00,
2013-07-11 02:25:00,60.2,57.6,29.95,NNW,346,0.0,0.0,91,0.00, +TSGR FG,SKC,-99.99,VWS V12.07,2013-07-11 07:25:00,
2013-07-11 02:30:00,60.1,57.5,29.96,NNW,346,0.0,0.0,91,0.00, +TSGR FG,SKC,-99.99,VWS V12.07,2013-07-11 07:30:00,
2013-07-11 02:35:00,60.0,57.4,29.96,NNW,346,0.0,0.0,91,0.00, +TSGR FG,SKC,-99.99,VWS V12.07,2013-07-11 07:35:00,
2013-07-11 02:40:00,59.8,57.2,29.96,NNW,346,0.0,0.0,91,0.00, +TSGR FG,SKC,-99.99,VWS V12.07,2013-07-11 07:40:00,
2013-07-11 02:45:00,59.6,57.0,29.96,NNW,346,0.0,0.0,91,0.00, +TSGR FG,SKC,-99.99,VWS V12.07,2013-07-11 07:45:00,
2013-07-11 02:50:00,59.4,57.1,29.96,NNW,346,0.0,0.0,92,0.00, +TSGR FG,SKC,-99.99,VWS V12.07,2013-07-11 07:50:00,
2013-07-11 02:55:00,59.3,57.0,29.96,NNW,346,0.0,0.0,92,0.00, +TSGR FG,SKC,-99.99,VWS V12.07,2013-07-11 07:55:00,
2013-07-11 03:05:00,59.1,56.8,29.95,NNW,346,0.0,0.0,92,0.00, +TSGR FG,SKC,-99.99,VWS V12.07,2013-07-11 08:05:00,
2013-07-11 03:10:00,58.9,56.6,29.96,NNW,346,0.0,0.0,92,0.00, +TSGR FG,SKC,-99.99,VWS V12.07,2013-07-11 08:10:00,
2013-07-11 03:15:00,58.9,56.6,29.96,NNW,346,0.0,0.0,92,0.00, +TSGR FG,SKC,-99.99,VWS V12.07,2013-07-11 08:15:00,
2013-07-11 03:20:00,58.7,56.4,29.96,NNW,346,0.0,0.0,92,0.00, +TSGR FG,SKC,-99.99,VWS V12.07,2013-07-11 08:20:00,
2013-07-11 03:25:00,58.5,56.5,29.96,NNW,346,0.0,0.0,93,0.00, +TSGR FG,SKC,-99.99,VWS V12.07,2013-07-11 08:25:00,
2013-07-11 03:30:00,58.4,56.4,29.96,NNW,346,0.0,0.0,93,0.00, +TSGR FG,SKC,-99.99,VWS V12.07,2013-07-11 08:30:00,
2013-07-11 03:35:00,58.4,56.4,29.96,NNW,346,0.0,0.0,93,0.00, +TSGR FG,SKC,-99.99,VWS V12.07,2013-07-11 08:35:00,
2013-07-11 03:40:00,58.3,56.3,29.96,NNW,346,0.0,0.0,93,0.00, +TSGR FG,SKC,-99.99,VWS V12.07,2013-07-11 08:40:00,
2013-07-11 03:45:00,58.2,56.2,29.96,NNW,346,0.0,0.0,93,0.00, +TSGR FG,SKC,-99.99,VWS V12.07,2013-07-11 08:45:00,
2013-07-11 03:50:00,58.2,56.2,29.96,NNW,346,0.0,0.0,93,0.00, +TSGR FG,SKC,-99.99,VWS V12.07,2013-07-11 08:50:00,
2013-07-11 03:55:00,58.1,56.1,29.96,NNW,346,0.0,0.0,93,0.00, +TSGR FG,SKC,-99.99,VWS V12.07,2013-07-11 08:55:00,
2013-07-11 04:00:00,58.0,56.0,29.96,NNW,346,0.0,0.0,93,0.00, +TSGR FG,SKC,-99.99,VWS V12.07,2013-07-11 09:00:00,
2013-07-11 04:05:00,57.8,55.8,29.96,NNW,346,0.0,0.0,93,0.00, +TSGR FG,SKC,-99.99,VWS V12.07,2013-07-11 09:05:00,
2013-07-11 04:10:00,57.7,55.7,29.96,NNW,346,0.0,0.0,93,0.00, +TSGR FG,SKC,-99.99,VWS V12.07,2013-07-11 09:10:00,
2013-07-11 04:15:00,57.7,56.0,29.97,NNW,346,0.0,0.0,94,0.00, +TSGR FG,SKC,-99.99,VWS V12.07,2013-07-11 09:15:00,
2013-07-11 04:20:00,57.6,55.9,29.97,NNW,346,0.0,0.0,94,0.00, +TSGR FG,SKC,-99.99,VWS V12.07,2013-07-11 09:20:00,
2013-07-11 04:25:00,57.5,55.8,29.97,NNW,346,0.0,0.0,94,0.00, +TSGR FG,SKC,-99.99,VWS V12.07,2013-07-11 09:25:00,
2013-07-11 04:30:00,57.4,55.7,29.97,NNW,346,0.0,0.0,94,0.00, +TSGR FG,SKC,-99.99,VWS V12.07,2013-07-11 09:30:00,
2013-07-11 04:35:00,57.3,55.6,29.97,NNW,346,0.0,0.0,94,0.00, +TSGR FG,SKC,-99.99,VWS V12.07,2013-07-11 09:35:00,
2013-07-11 04:40:00,57.2,55.5,29.97,NNW,346,0.0,0.0,94,0.00, +TSGR FG,SKC,-99.99,VWS V12.07,2013-07-11 09:40:00,
2013-07-11 04:45:00,57.0,55.3,29.97,NNW,346,0.0,0.0,94,0.00, +TSGR FG,SKC,-99.99,VWS V12.07,2013-07-11 09:45:00,
2013-07-11 04:50:00,57.0,55.3,29.97,NNW,346,0.0,0.0,94,0.00, +TSGR FG,SKC,-99.99,VWS V12.07,2013-07-11 09:50:00,
2013-07-11 04:55:00,56.9,55.2,29.97,NNW,346,0.0,0.0,94,0.00, +TSGR FG,SKC,-99.99,VWS V12.07,2013-07-11 09:55:00,
2013-07-11 05:00:00,56.8,55.1,29.97,NNW,346,0.0,0.0,94,0.00, +TSGR FG,SKC,-99.99,VWS V12.07,2013-07-11 10:00:00,
2013-07-11 05:05:00,56.8,55.1,29.98,NNW,346,0.0,0.0,94,0.00, +TSGR FG,SKC,-99.99,VWS V12.07,2013-07-11 10:05:00,
2013-07-11 05:10:00,56.8,55.1,29.98,NNW,346,0.0,0.0,94,0.00, +TSGR FG,SKC,-99.99,VWS V12.07,2013-07-11 10:10:00,
2013-07-11 05:15:00,56.7,55.0,29.98,NNW,346,0.0,0.0,94,0.00, +TSGR FG,SKC,-99.99,VWS V12.07,2013-07-11 10:15:00,
2013-07-11 05:20:00,56.7,55.0,29.98,NNW,346,0.0,0.0,94,0.00, +TSGR FG,SKC,-99.99,VWS V12.07,2013-07-11 10:20:00,
2013-07-11 05:25:00,56.7,55.0,29.98,NNW,346,0.0,0.0,94,0.00, +TSGR FG,SKC,-99.99,VWS V12.07,2013-07-11 10:25:00,
2013-07-11 05:30:00,56.8,55.4,29.98,NNW,346,0.0,0.0,95,0.00, +TSGR FG,SKC,-99.99,VWS V12.07,2013-07-11 10:30:00,
2013-07-11 05:35:00,56.8,55.4,29.98,NNW,346,0.0,0.0,95,0.00, +TSGR FG,SKC,-99.99,VWS V12.07,2013-07-11 10:35:00,
2013-07-11 05:40:00,56.7,55.3,29.99,NNW,346,0.0,0.0,95,0.00, +TSGR FG,SKC,-99.99,VWS V12.07,2013-07-11 10:40:00,
2013-07-11 05:45:00,56.8,55.4,29.99,NNW,346,0.0,0.0,95,0.00, +TSGR FG,SKC,-99.99,VWS V12.07,2013-07-11 10:45:00,
2013-07-11 05:50:00,56.8,55.4,29.99,NNW,346,0.0,0.0,95,0.00, +TSGR FG,SKC,-99.99,VWS V12.07,2013-07-11 10:50:00,
2013-07-11 05:55:00,56.9,55.5,29.99,NNW,346,0.0,0.0,95,0.00, +TSGR FG,SKC,-99.99,VWS V12.07,2013-07-11 10:55:00,
2013-07-11 06:00:00,57.1,55.7,29.99,NNW,346,0.0,0.0,95,0.00, +TSGR FG,SKC,-99.99,VWS V12.07,2013-07-11 11:00:00,
2013-07-11 06:05:00,57.3,55.9,29.99,NNW,346,0.0,0.0,95,0.00, +TSGR FG,SKC,-99.99,VWS V12.07,2013-07-11 11:05:00,
2013-07-11 06:10:00,57.5,56.1,29.99,NNW,346,0.0,0.0,95,0.00, +TSGR FG,SKC,-99.99,VWS V12.07,2013-07-11 11:10:00,
2013-07-11 06:15:00,57.8,56.4,29.99,NNW,346,0.0,0.0,95,0.00, +TSGR FG,SKC,-99.99,VWS V12.07,2013-07-11 11:15:00,
2013-07-11 06:20:00,58.0,56.6,29.99,NNW,346,0.0,0.0,95,0.00, +TSGR FG,SKC,-99.99,VWS V12.07,2013-07-11 11:20:00,
2013-07-11 06:25:00,58.4,57.0,29.99,NNW,346,0.0,0.0,95,0.00, +TSGR FG,SKC,-99.99,VWS V12.07,2013-07-11 11:25:00,
2013-07-11 06:30:00,58.6,57.2,29.99,NNW,346,0.0,0.0,95,0.00, +TSGR FG,SKC,-99.99,VWS V12.07,2013-07-11 11:30:00,
2013-07-11 06:35:00,59.0,57.6,29.99,NNW,346,0.0,0.0,95,0.00, +TSGR FG,SKC,-99.99,VWS V12.07,2013-07-11 11:35:00,
2013-07-11 06:40:00,59.5,58.1,29.99,NNW,346,0.0,0.0,95,0.00, +TSGR FG,SKC,-99.99,VWS V12.07,2013-07-11 11:40:00,
2013-07-11 06:45:00,59.8,58.4,29.99,NNW,346,0.0,0.0,95,0.00, +TSGR FG,SKC,-99.99,VWS V12.07,2013-07-11 11:45:00,
2013-07-11 06:50:00,60.0,58.3,29.99,NNW,346,0.0,0.0,94,0.00, +TSGR FG,SKC,-99.99,VWS V12.07,2013-07-11 11:50:00,
2013-07-11 06:55:00,60.3,58.6,29.99,NNW,346,0.0,1.0,94,0.00, +TSGR FG,SKC,-99.99,VWS V12.07,2013-07-11 11:55:00,
2013-07-11 07:00:00,60.9,59.2,29.99,NNW,346,0.0,0.0,94,0.00, +TSGR FG,SKC,-99.99,VWS V12.07,2013-07-11 12:00:00,
2013-07-11 07:05:00,61.4,59.4,29.99,NNW,346,0.0,0.0,93,0.00, +TSGR FG,SKC,-99.99,VWS V12.07,2013-07-11 12:05:00,
2013-07-11 07:15:00,62.9,60.5,29.99,NNW,346,0.0,1.0,92,0.00, +TSGR FG,SKC,-99.99,VWS V12.07,2013-07-11 12:15:00,
2013-07-11 07:20:00,63.7,60.7,30.00,NNW,346,0.0,0.0,90,0.00, +TSGR FG,SKC,-99.99,VWS V12.07,2013-07-11 12:20:00,
2013-07-11 07:25:00,64.4,60.8,30.00,NNW,346,0.0,1.0,88,0.00, +TSGR FG,SKC,-99.99,VWS V12.07,2013-07-11 12:25:00,
2013-07-11 07:30:00,65.0,60.7,30.00,NNW,346,0.0,0.0,86,0.00, +TSGR FG,SKC,-99.99,VWS V12.07,2013-07-11 12:30:00,
2013-07-11 07:35:00,65.5,60.5,30.01,NNW,346,0.0,2.0,84,0.00, +TSGR FG,SKC,-99.99,VWS V12.07,2013-07-11 12:35:00,
2013-07-11 07:40:00,65.9,60.3,30.01,NNW,346,1.0,1.0,82,0.00, +TSGR FG,SKC,-99.99,VWS V12.07,2013-07-11 12:40:00,
2013-07-11 07:45:00,66.4,60.7,30.01,NNW,346,1.0,2.0,82,0.00, +TSGR FG,SKC,-99.99,VWS V12.07,2013-07-11 12:45:00,
2013-07-11 07:50:00,66.9,60.5,30.01,NNW,343,0.0,1.0,80,0.00, +TSGR FG,SKC,-99.99,VWS V12.07,2013-07-11 12:50:00,
2013-07-11 08:00:00,67.8,59.2,30.01,NNW,343,1.0,1.0,74,0.00, +TSGR FG,SKC,-99.99,VWS V12.07,2013-07-11 13:00:00,
2013-07-11 08:05:00,68.2,58.8,30.02,NW,311,3.0,3.0,72,0.00, +TSGR FG,SKC,-99.99,VWS V12.07,2013-07-11 13:05:00,
2013-07-11 08:10:00,68.5,58.7,30.01,NW,310,1.0,1.0,71,0.00, +TSGR FG,SKC,-99.99,VWS V12.07,2013-07-11 13:10:00,
2013-07-11 08:15:00,68.9,59.1,30.01,NW,310,1.0,2.0,71,0.00, +TSGR FG,SKC,-99.99,VWS V12.07,2013-07-11 13:15:00,
2013-07-11 08:20:00,69.3,59.1,30.01,NW,311,0.0,0.0,70,0.00, +TSGR FG,SKC,-99.99,VWS V12.07,2013-07-11 13:20:00,
2013-07-11 08:25:00,69.6,59.8,30.01,NW,311,0.0,3.0,71,0.00, +TSGR FG,SKC,-99.99,VWS V12.07,2013-07-11 13:25:00,
2013-07-11 08:35:00,70.2,59.6,30.02,NW,316,0.0,2.0,69,0.00, +TSGR FG,SKC,-99.99,VWS V12.07,2013-07-11 13:35:00,
2013-07-11 08:40:00,70.5,59.0,30.02,NW,316,0.0,2.0,67,0.00, +TSGR FG,SKC,-99.99,VWS V12.07,2013-07-11 13:40:00,
2013-07-11 08:50:00,71.3,58.9,30.02,West,279,3.0,3.0,65,0.00, +TSGR FG,SKC,-99.99,VWS V12.07,2013-07-11 13:50:00,
2013-07-11 09:00:00,71.8,59.8,30.02,NW,313,0.0,3.0,66,0.00, +TSGR FG,SKC,-99.99,VWS V12.07,2013-07-11 14:00:00,
2013-07-11 09:05:00,72.1,57.0,30.02,North,355,2.0,4.0,59,0.00, +TSGR FG,SKC,-99.99,VWS V12.07,2013-07-11 14:05:00,
2013-07-11 09:20:00,73.0,57.4,30.01,North,355,1.0,4.0,58,0.00, +TSGR FG,SKC,-99.99,VWS V12.07,2013-07-11 14:20:00,
2013-07-11 09:25:00,73.1,57.5,30.02,NNW,328,1.0,6.0,58,0.00, +TSGR FG,SKC,-99.99,VWS V12.07,2013-07-11 14:25:00,
2013-07-11 09:30:00,73.2,56.6,30.02,NNE,14,0.0,1.0,56,0.00, +TSGR FG,SKC,-99.99,VWS V12.07,2013-07-11 14:30:00,
2013-07-11 09:35:00,73.5,57.3,30.02,NNW,338,2.0,3.0,57,0.00, +TSGR FG,SKC,-99.99,VWS V12.07,2013-07-11 14:35:00,
2013-07-11 09:40:00,73.8,58.6,30.02,NW,311,0.0,6.0,59,0.00, +TSGR FG,SKC,-99.99,VWS V12.07,2013-07-11 14:40:00,
2013-07-11 09:45:00,73.8,57.6,30.02,NW,312,3.0,8.0,57,0.00, +TSGR FG,SKC,-99.99,VWS V12.07,2013-07-11 14:45:00,
2013-07-11 09:50:00,73.8,57.6,30.02,NNW,343,2.0,2.0,57,0.00, +TSGR FG,SKC,-99.99,VWS V12.07,2013-07-11 14:50:00,
2013-07-11 09:55:00,74.2,58.5,30.02,WNW,284,4.0,4.0,58,0.00, +TSGR FG,SKC,-99.99,VWS V12.07,2013-07-11 14:55:00,
2013-07-11 10:05:00,74.4,57.2,30.02,NNW,338,3.0,7.0,55,0.00, +TSGR FG,SKC,-99.99,VWS V12.07,2013-07-11 15:05:00,
2013-07-11 10:10:00,74.6,57.4,30.02,NW,308,3.0,3.0,55,0.00, +TSGR FG,SKC,-99.99,VWS V12.07,2013-07-11 15:10:00,
2013-07-11 10:20:00,75.0,57.2,30.02,NE,39,3.0,3.0,54,0.00, +TSGR FG,SKC,-99.99,VWS V12.07,2013-07-11 15:20:00,
2013-07-11 10:40:00,75.9,57.0,30.02,NNE,15,4.0,6.0,52,0.00, +TSGR FG,SKC,-99.99,VWS V12.07,2013-07-11 15:40:00,
2013-07-11 10:45:00,76.0,57.7,30.02,NNW,337,1.0,5.0,53,0.00, +TSGR FG,SKC,-99.99,VWS V12.07,2013-07-11 15:45:00,
2013-07-11 10:50:00,75.8,56.9,30.02,ENE,62,3.0,3.0,52,0.00, +TSGR FG,SKC,-99.99,VWS V12.07,2013-07-11 15:50:00,
2013-07-11 10:55:00,76.1,57.8,30.02,NNE,27,2.0,5.0,53,0.00, +TSGR FG,SKC,-99.99,VWS V12.07,2013-07-11 15:55:00,
2013-07-11 11:00:00,76.1,57.8,30.02,NNE,30,3.0,6.0,53,0.00, +TSGR FG,SKC,-99.99,VWS V12.07,2013-07-11 16:00:00,
2013-07-11 11:10:00,76.7,58.3,30.02,WNW,290,1.0,5.0,53,0.00, +TSGR FG,SKC,-99.99,VWS V12.07,2013-07-11 16:10:00,
2013-07-11 11:15:00,76.9,58.0,30.02,NNE,28,4.0,4.0,52,0.00, +TSGR FG,SKC,-99.99,VWS V12.07,2013-07-11 16:15:00,
2013-07-11 11:20:00,76.7,56.7,30.02,NNW,338,5.0,6.0,50,0.00, +TSGR FG,SKC,-99.99,VWS V12.07,2013-07-11 16:20:00,
2013-07-11 11:25:00,76.2,54.5,30.03,NNE,12,1.0,7.0,47,0.00, +TSGR FG,SKC,-99.99,VWS V12.07,2013-07-11 16:25:00,
2013-07-11 11:35:00,76.9,56.9,30.02,NNE,28,2.0,4.0,50,0.00, +TSGR FG,SKC,-99.99,VWS V12.07,2013-07-11 16:35:00,
2013-07-11 11:40:00,76.5,55.9,30.02,North,355,0.0,4.0,49,0.00, +TSGR FG,SKC,-99.99,VWS V12.07,2013-07-11 16:40:00,
2013-07-11 11:50:00,76.7,57.2,30.02,ENE,63,3.0,5.0,51,0.00, +TSGR FG,SKC,-99.99,VWS V12.07,2013-07-11 16:50:00,
2013-07-11 11:55:00,77.2,56.0,30.02,ENE,57,4.0,8.0,48,0.00, +TSGR FG,SKC,-99.99,VWS V12.07,2013-07-11 16:55:00,
2013-07-11 12:00:00,77.1,55.3,30.02,NE,52,1.0,8.0,47,0.00, +TSGR FG,SKC,-99.99,VWS V12.07,2013-07-11 17:00:00,
2013-07-11 12:05:00,77.4,56.8,30.02,WNW,285,4.0,8.0,49,0.00, +TSGR FG,SKC,-99.99,VWS V12.07,2013-07-11 17:05:00,
2013-07-11 12:15:00,78.1,57.4,30.02,WNW,294,1.0,5.0,49,0.00, +TSGR FG,SKC,-99.99,VWS V12.07,2013-07-11 17:15:00,
2013-07-11 12:25:00,76.9,55.7,30.02,NNE,18,3.0,9.0,48,0.00, +TSGR FG,SKC,-99.99,VWS V12.07,2013-07-11 17:25:00,
2013-07-11 12:30:00,77.1,57.0,30.02,NNE,30,1.0,1.0,50,0.00, +TSGR FG,SKC,-99.99,VWS V12.07,2013-07-11 17:30:00,
2013-07-11 12:40:00,77.8,55.4,30.02,North,5,0.0,0.0,46,0.00, +TSGR FG,SKC,-99.99,VWS V12.07,2013-07-11 17:40:00,
2013-07-11 12:45:00,77.7,56.5,30.02,ENE,57,1.0,2.0,48,0.00, +TSGR FG,SKC,-99.99,VWS V12.07,2013-07-11 17:45:00,
2013-07-11 12:50:00,77.2,56.6,30.01,NNE,28,2.0,2.0,49,0.00, +TSGR FG,SKC,-99.99,VWS V12.07,2013-07-11 17:50:00,
2013-07-11 12:55:00,77.7,57.0,30.01,NE,40,1.0,5.0,49,0.00, +TSGR FG,SKC,-99.99,VWS V12.07,2013-07-11 17:55:00,
2013-07-11 13:00:00,77.7,56.5,30.01,North,360,3.0,5.0,48,0.00, +TSGR FG,SKC,-99.99,VWS V12.07,2013-07-11 18:00:00,
2013-07-11 13:05:00,77.3,56.7,30.01,NNE,30,4.0,5.0,49,0.00, +TSGR FG,SKC,-99.99,VWS V12.07,2013-07-11 18:05:00,
2013-07-11 13:10:00,77.4,57.9,30.01,North,349,4.0,7.0,51,0.00, +TSGR FG,SKC,-99.99,VWS V12.07,2013-07-11 18:10:00,
2013-07-11 13:15:00,78.2,56.9,30.01,North,5,5.0,6.0,48,0.00, +TSGR FG,SKC,-99.99,VWS V12.07,2013-07-11 18:15:00,
2013-07-11 13:20:00,78.5,59.4,30.01,NNE,19,5.0,5.0,52,0.00, +TSGR FG,SKC,-99.99,VWS V12.07,2013-07-11 18:20:00,
2013-07-11 13:25:00,78.7,59.1,30.01,East,80,2.0,5.0,51,0.00, +TSGR FG,SKC,-99.99,VWS V12.07,2013-07-11 18:25:00,
2013-07-11 13:35:00,77.5,59.0,30.01,ENE,67,2.0,4.0,53,0.00, +TSGR FG,SKC,-99.99,VWS V12.07,2013-07-11 18:35:00,
2013-07-11 13:40:00,77.3,59.9,30.01,NE,45,4.0,6.0,55,0.00, +TSGR FG,SKC,-99.99,VWS V12.07,2013-07-11 18:40:00,
2013-07-11 13:50:00,76.1,59.8,30.01,NE,34,2.0,6.0,57,0.00, +TSGR FG,SKC,-99.99,VWS V12.07,2013-07-11 18:50:00,
2013-07-11 13:55:00,75.8,60.9,30.01,ENE,65,5.0,8.0,60,0.00, +TSGR FG,SKC,-99.99,VWS V12.07,2013-07-11 18:55:00,
2013-07-11 14:00:00,76.4,61.5,30.01,ESE,108,7.0,8.0,60,0.00, +TSGR FG,SKC,-99.99,VWS V12.07,2013-07-11 19:00:00,
2013-07-11 14:05:00,76.7,60.8,30.01,ENE,58,4.0,7.0,58,0.00, +TSGR FG,SKC,-99.99,VWS V12.07,2013-07-11 19:05:00,
2013-07-11 14:10:00,76.6,60.7,30.01,ENE,67,5.0,5.0,58,0.00, +TSGR FG,SKC,-99.99,VWS V12.07,2013-07-11 19:10:00,
2013-07-11 14:15:00,76.5,60.2,30.01,NE,46,5.0,8.0,57,0.00, +TSGR FG,SKC,-99.99,VWS V12.07,2013-07-11 19:15:00,
2013-07-11 14:25:00,76.9,61.0,30.02,NNE,33,4.0,7.0,58,0.00, +TSGR FG,SKC,-99.99,VWS V12.07,2013-07-11 19:25:00,
2013-07-11 14:35:00,76.4,61.5,30.01,NE,56,2.0,8.0,60,0.00, +TSGR FG,SKC,-99.99,VWS V12.07,2013-07-11 19:35:00,
2013-07-11 14:40:00,76.7,60.8,30.01,ENE,59,4.0,8.0,58,0.00, +TSGR FG,SKC,-99.99,VWS V12.07,2013-07-11 19:40:00,
2013-07-11 14:50:00,76.7,61.3,30.01,NNE,12,4.0,4.0,59,0.00, +TSGR FG,SKC,-99.99,VWS V12.07,2013-07-11 19:50:00,
2013-07-11 14:55:00,76.7,60.3,30.01,ESE,102,4.0,8.0,57,0.00, +TSGR FG,SKC,-99.99,VWS V12.07,2013-07-11 19:55:00,
2013-07-11 15:00:00,76.2,59.4,30.01,East,93,5.0,11.0,56,0.00, +TSGR FG,SKC,-99.99,VWS V12.07,2013-07-11 20:00:00,
2013-07-11 15:05:00,76.2,58.4,30.01,ESE,113,7.0,8.0,54,0.00, +TSGR FG,SKC,-99.99,VWS V12.07,2013-07-11 20:05:00,
2013-07-11 15:15:00,75.9,57.0,30.02,East,88,5.0,8.0,52,0.00, +TSGR FG,SKC,-99.99,VWS V12.07,2013-07-11 20:15:00,
2013-07-11 15:30:00,75.8,56.4,30.02,East,92,6.0,11.0,51,0.00, +TSGR FG,SKC,-99.99,VWS V12.07,2013-07-11 20:30:00,
2013-07-11 15:40:00,75.8,55.9,30.02,NE,41,4.0,4.0,50,0.00, +TSGR FG,SKC,-99.99,VWS V12.07,2013-07-11 20:40:00,
2013-07-11 15:45:00,75.9,56.0,30.02,NE,43,6.0,6.0,50,0.00, +TSGR FG,SKC,-99.99,VWS V12.07,2013-07-11 20:45:00,
2013-07-11 15:50:00,76.1,58.3,30.02,NE,49,4.0,6.0,54,0.00, +TSGR FG,SKC,-99.99,VWS V12.07,2013-07-11 20:50:00,
2013-07-11 16:00:00,75.7,56.8,30.02,NE,51,3.0,8.0,52,0.00, +TSGR FG,SKC,-99.99,VWS V12.07,2013-07-11 21:00:00,
2013-07-11 16:05:00,75.8,56.4,30.02,NE,34,3.0,7.0,51,0.00, +TSGR FG,SKC,-99.99,VWS V12.07,2013-07-11 21:05:00,
2013-07-11 16:10:00,76.0,54.3,30.02,NNE,27,3.0,7.0,47,0.00, +TSGR FG,SKC,-99.99,VWS V12.07,2013-07-11 21:10:00,
2013-07-11 16:15:00,75.7,54.1,30.02,NE,42,4.0,8.0,47,0.00, +TSGR FG,SKC,-99.99,VWS V12.07,2013-07-11 21:15:00,
2013-07-11 16:20:00,75.7,53.5,30.02,ENE,62,2.0,2.0,46,0.00, +TSGR FG,SKC,-99.99,VWS V12.07,2013-07-11 21:20:00,
2013-07-11 16:25:00,75.9,55.4,30.02,NE,49,3.0,6.0,49,0.00, +TSGR FG,SKC,-99.99,VWS V12.07,2013-07-11 21:25:00,
2013-07-11 16:35:00,76.0,52.5,30.01,ESE,106,4.0,7.0,44,0.00, +TSGR FG,SKC,-99.99,VWS V12.07,2013-07-11 21:35:00,
2013-07-11 16:45:00,75.4,52.0,30.01,ENE,60,3.0,8.0,44,0.00, +TSGR FG,SKC,-99.99,VWS V12.07,2013-07-11 21:45:00,
2013-07-11 16:50:00,75.6,52.2,30.01,ENE,57,5.0,5.0,44,0.00, +TSGR FG,SKC,-99.99,VWS V12.07,2013-07-11 21:50:00,
2013-07-11 17:00:00,75.7,52.3,30.01,ENE,71,2.0,7.0,44,0.00, +TSGR FG,SKC,-99.99,VWS V12.07,2013-07-11 22:00:00,
2013-07-11 17:05:00,75.9,54.2,30.01,ENE,67,2.0,5.0,47,0.00, +TSGR FG,SKC,-99.99,VWS V12.07,2013-07-11 22:05:00,
2013-07-11 17:10:00,75.8,53.6,30.01,ENE,69,2.0,2.0,46,0.00, +TSGR FG,SKC,-99.99,VWS V12.07,2013-07-11 22:10:00,
2013-07-11 17:15:00,75.8,52.4,30.01,NE,36,5.0,6.0,44,0.00, +TSGR FG,SKC,-99.99,VWS V12.07,2013-07-11 22:15:00,
2013-07-11 17:20:00,75.8,51.7,30.01,East,96,4.0,4.0,43,0.00, +TSGR FG,SKC,-99.99,VWS V12.07,2013-07-11 22:20:00,
2013-07-11 17:35:00,75.4,53.2,30.01,NE,51,2.0,6.0,46,0.00, +TSGR FG,SKC,-99.99,VWS V12.07,2013-07-11 22:35:00,
2013-07-11 17:45:00,75.3,53.1,30.00,ENE,58,3.0,7.0,46,0.00, +TSGR FG,SKC,-99.99,VWS V12.07,2013-07-11 22:45:00,
2013-07-11 17:50:00,75.1,52.3,30.01,East,93,5.0,5.0,45,0.00, +TSGR FG,SKC,-99.99,VWS V12.07,2013-07-11 22:50:00,
2013-07-11 17:55:00,74.9,52.8,30.00,NNE,24,2.0,6.0,46,0.00, +TSGR FG,SKC,-99.99,VWS V12.07,2013-07-11 22:55:00,
2013-07-11 18:00:00,74.9,53.9,30.00,NE,37,1.0,7.0,48,0.00, +TSGR FG,SKC,-99.99,VWS V12.07,2013-07-11 23:00:00,
2013-07-11 18:05:00,74.8,54.4,30.00,East,100,4.0,8.0,49,0.00, +TSGR FG,SKC,-99.99,VWS V12.07,2013-07-11 23:05:00,
2013-07-11 18:10:00,74.6,53.1,30.00,ENE,71,3.0,8.0,47,0.00, +TSGR FG,SKC,-99.99,VWS V12.07,2013-07-11 23:10:00,
2013-07-11 18:15:00,74.6,53.1,30.01,ENE,62,0.0,5.0,47,0.00, +TSGR FG,SKC,-99.99,VWS V12.07,2013-07-11 23:15:00,
2013-07-11 18:30:00,74.1,53.2,30.00,NE,41,4.0,5.0,48,0.00, +TSGR FG,SKC,-99.99,VWS V12.07,2013-07-11 23:30:00,
2013-07-11 18:35:00,73.9,52.4,30.00,NE,49,2.0,5.0,47,0.00, +TSGR FG,SKC,-99.99,VWS V12.07,2013-07-11 23:35:00,
2013-07-11 18:40:00,73.5,51.5,30.00,ENE,66,3.0,6.0,46,0.00, +TSGR FG,SKC,-99.99,VWS V12.07,2013-07-11 23:40:00,
2013-07-11 18:45:00,73.3,51.9,30.00,NE,46,4.0,5.0,47,0.00, +TSGR FG,SKC,-99.99,VWS V12.07,2013-07-11 23:45:00,
2013-07-11 18:55:00,73.0,51.0,30.00,ENE,59,3.0,5.0,46,0.00, +TSGR FG,SKC,-99.99,VWS V12.07,2013-07-11 23:55:00,
2013-07-11 19:00:00,72.9,51.5,30.00,ENE,71,0.0,0.0,47,0.00, +TSGR FG,SKC,-99.99,VWS V12.07,2013-07-12 00:00:00,
2013-07-11 19:10:00,72.8,51.4,30.00,NE,49,3.0,5.0,47,0.00, +TSGR FG,SKC,-99.99,VWS V12.07,2013-07-12 00:10:00,
2013-07-11 19:15:00,72.7,51.9,30.00,NE,50,1.0,3.0,48,0.00, +TSGR FG,SKC,-99.99,VWS V12.07,2013-07-12 00:15:00,
2013-07-11 19:20:00,72.5,52.3,30.00,NE,52,1.0,1.0,49,0.00, +TSGR FG,SKC,-99.99,VWS V12.07,2013-07-12 00:20:00,
2013-07-11 19:25:00,72.4,52.2,30.00,ENE,58,1.0,3.0,49,0.00, +TSGR FG,SKC,-99.99,VWS V12.07,2013-07-12 00:25:00,
2013-07-11 19:30:00,72.3,52.1,30.00,ENE,68,0.0,4.0,49,0.00, +TSGR FG,SKC,-99.99,VWS V12.07,2013-07-12 00:30:00,
2013-07-11 19:35:00,72.1,53.0,29.99,ENE,68,0.0,1.0,51,0.00, +TSGR FG,SKC,-99.99,VWS V12.07,2013-07-12 00:35:00,
2013-07-11 19:40:00,71.8,52.2,29.99,ENE,74,2.0,3.0,50,0.00, +TSGR FG,SKC,-99.99,VWS V12.07,2013-07-12 00:40:00,
2013-07-11 19:45:00,71.6,52.0,30.00,ENE,74,1.0,2.0,50,0.00, +TSGR FG,SKC,-99.99,VWS V12.07,2013-07-12 00:45:00,
2013-07-11 19:50:00,71.5,53.0,29.99,ENE,74,0.0,2.0,52,0.00, +TSGR FG,SKC,-99.99,VWS V12.07,2013-07-12 00:50:00,
2013-07-11 19:55:00,71.2,53.7,30.00,ENE,74,0.0,0.0,54,0.00, +TSGR FG,SKC,-99.99,VWS V12.07,2013-07-12 00:55:00,
2013-07-11 20:00:00,70.8,54.3,30.00,ENE,74,0.0,0.0,56,0.00, +TSGR FG,SKC,-99.99,VWS V12.07,2013-07-12 01:00:00,
2013-07-11 20:05:00,70.3,53.9,30.00,ENE,74,0.0,0.0,56,0.00, +TSGR FG,SKC,-99.99,VWS V12.07,2013-07-12 01:05:00,
2013-07-11 20:10:00,69.9,53.5,30.00,ENE,74,0.0,0.0,56,0.00, +TSGR FG,SKC,-99.99,VWS V12.07,2013-07-12 01:10:00,
2013-07-11 20:15:00,69.6,53.2,30.00,ENE,74,0.0,0.0,56,0.00, +TSGR FG,SKC,-99.99,VWS V12.07,2013-07-12 01:15:00,
2013-07-11 20:20:00,69.0,53.2,30.00,ENE,74,0.0,0.0,57,0.00, +TSGR FG,SKC,-99.99,VWS V12.07,2013-07-12 01:20:00,
2013-07-11 20:25:00,68.5,53.6,30.00,ENE,74,0.0,0.0,59,0.00, +TSGR FG,SKC,-99.99,VWS V12.07,2013-07-12 01:25:00,
2013-07-11 20:35:00,67.6,53.7,30.00,ENE,74,0.0,0.0,61,0.00, +TSGR FG,SKC,-99.99,VWS V12.07,2013-07-12 01:35:00,
2013-07-11 20:40:00,67.1,53.2,30.00,ENE,74,0.0,0.0,61,0.00, +TSGR FG,SKC,-99.99,VWS V12.07,2013-07-12 01:40:00,
2013-07-11 20:45:00,66.6,53.2,30.00,ENE,74,0.0,0.0,62,0.00, +TSGR FG,SKC,-99.99,VWS V12.07,2013-07-12 01:45:00,
2013-07-11 20:50:00,66.1,53.2,30.00,ENE,74,0.0,0.0,63,0.00, +TSGR FG,SKC,-99.99,VWS V12.07,2013-07-12 01:50:00,
2013-07-11 20:55:00,65.8,53.3,30.00,ENE,74,0.0,0.0,64,0.00, +TSGR FG,SKC,-99.99,VWS V12.07,2013-07-12 01:55:00,
2013-07-11 21:00:00,65.4,53.8,30.00,ENE,74,0.0,0.0,66,0.00, +TSGR FG,SKC,-99.99,VWS V12.07,2013-07-12 02:00:00,
2013-07-11 21:05:00,65.0,53.4,30.00,ENE,74,0.0,0.0,66,0.00, +TSGR FG,SKC,-99.99,VWS V12.07,2013-07-12 02:05:00,
2013-07-11 21:10:00,64.7,53.5,30.00,ENE,74,0.0,0.0,67,0.00, +TSGR FG,SKC,-99.99,VWS V12.07,2013-07-12 02:10:00,
2013-07-11 21:15:00,64.4,53.2,30.00,ENE,74,0.0,0.0,67,0.00, +TSGR FG,SKC,-99.99,VWS V12.07,2013-07-12 02:15:00,
2013-07-11 21:20:00,64.1,53.3,30.00,ENE,74,0.0,0.0,68,0.00, +TSGR FG,SKC,-99.99,VWS V12.07,2013-07-12 02:20:00,
2013-07-11 21:25:00,63.8,53.8,30.00,ENE,74,0.0,0.0,70,0.00, +TSGR FG,SKC,-99.99,VWS V12.07,2013-07-12 02:25:00,
2013-07-11 21:35:00,63.2,53.3,30.00,ENE,74,0.0,0.0,70,0.00, +TSGR FG,SKC,-99.99,VWS V12.07,2013-07-12 02:35:00,
2013-07-11 21:40:00,63.1,54.3,30.00,ENE,74,0.0,0.0,73,0.00, +TSGR FG,SKC,-99.99,VWS V12.07,2013-07-12 02:40:00,
2013-07-11 21:50:00,62.4,52.9,30.00,ENE,74,0.0,0.0,71,0.00, +TSGR FG,SKC,-99.99,VWS V12.07,2013-07-12 02:50:00,
2013-07-11 21:55:00,62.3,53.5,30.00,ENE,74,0.0,0.0,73,0.00, +TSGR FG,SKC,-99.99,VWS V12.07,2013-07-12 02:55:00,
2013-07-11 22:05:00,62.0,54.4,30.00,ENE,74,0.0,0.0,76,0.00, +TSGR FG,SKC,-99.99,VWS V12.07,2013-07-12 03:05:00,
2013-07-11 22:10:00,61.7,54.1,30.00,ENE,74,0.0,0.0,76,0.00, +TSGR FG,SKC,-99.99,VWS V12.07,2013-07-12 03:10:00,
2013-07-11 22:15:00,61.3,54.0,30.01,ENE,74,0.0,0.0,77,0.00, +TSGR FG,SKC,-99.99,VWS V12.07,2013-07-12 03:15:00,
2013-07-11 22:20:00,61.0,53.8,30.01,ENE,74,0.0,0.0,77,0.00, +TSGR FG,SKC,-99.99,VWS V12.07,2013-07-12 03:20:00,
2013-07-11 22:25:00,60.8,53.5,30.00,ENE,74,0.0,0.0,77,0.00, +TSGR FG,SKC,-99.99,VWS V12.07,2013-07-12 03:25:00,
2013-07-11 22:30:00,60.5,53.6,30.00,ENE,74,0.0,0.0,78,0.00, +TSGR FG,SKC,-99.99,VWS V12.07,2013-07-12 03:30:00,
2013-07-11 22:35:00,60.3,53.4,30.00,ENE,74,0.0,0.0,78,0.00, +TSGR FG,SKC,-99.99,VWS V12.07,2013-07-12 03:35:00,
2013-07-11 22:40:00,60.2,53.7,30.00,ENE,74,0.0,0.0,79,0.00, +TSGR FG,SKC,-99.99,VWS V12.07,2013-07-12 03:40:00,
2013-07-11 22:45:00,60.1,53.9,30.00,ENE,74,0.0,0.0,80,0.00, +TSGR FG,SKC,-99.99,VWS V12.07,2013-07-12 03:45:00,
2013-07-11 22:50:00,59.9,53.4,30.00,ENE,74,0.0,0.0,79,0.00, +TSGR FG,SKC,-99.99,VWS V12.07,2013-07-12 03:50:00,
2013-07-11 22:55:00,59.7,53.2,30.00,ENE,74,0.0,0.0,79,0.00, +TSGR FG,SKC,-99.99,VWS V12.07,2013-07-12 03:55:00,
2013-07-11 23:00:00,59.6,52.7,30.00,ENE,74,0.0,0.0,78,0.00, +TSGR FG,SKC,-99.99,VWS V12.07,2013-07-12 04:00:00,
2013-07-11 23:05:00,59.4,52.9,30.00,ENE,74,0.0,0.0,79,0.00, +TSGR FG,SKC,-99.99,VWS V12.07,2013-07-12 04:05:00,
2013-07-11 23:10:00,59.3,52.8,30.00,ENE,74,0.0,0.0,79,0.00, +TSGR FG,SKC,-99.99,VWS V12.07,2013-07-12 04:10:00,
2013-07-11 23:15:00,59.2,53.0,30.01,ENE,74,0.0,0.0,80,0.00, +TSGR FG,SKC,-99.99,VWS V12.07,2013-07-12 04:15:00,
2013-07-11 23:20:00,59.1,52.9,30.01,ENE,74,0.0,0.0,80,0.00, +TSGR FG,SKC,-99.99,VWS V12.07,2013-07-12 04:20:00,
2013-07-11 23:25:00,59.0,53.5,30.01,ENE,74,0.0,0.0,82,0.00, +TSGR FG,SKC,-99.99,VWS V12.07,2013-07-12 04:25:00,
2013-07-11 23:30:00,58.9,53.8,30.01,ENE,74,0.0,0.0,83,0.00, +TSGR FG,SKC,-99.99,VWS V12.07,2013-07-12 04:30:00,
2013-07-11 23:35:00,58.8,53.7,30.01,ENE,74,0.0,0.0,83,0.00, +TSGR FG,SKC,-99.99,VWS V12.07,2013-07-12 04:35:00,
2013-07-11 23:40:00,58.6,53.5,30.01,ENE,74,0.0,0.0,83,0.00, +TSGR FG,SKC,-99.99,VWS V12.07,2013-07-12 04:40:00,
2013-07-11 23:45:00,58.4,53.6,30.01,ENE,74,0.0,0.0,84,0.00, +TSGR FG,SKC,-99.99,VWS V12.07,2013-07-12 04:45:00,
2013-07-11 23:50:00,58.2,53.4,30.01,ENE,74,0.0,0.0,84,0.00, +TSGR FG,SKC,-99.99,VWS V12.07,2013-07-12 04:50:00,
2013-07-11 23:55:00,58.0,53.2,30.01,ENE,74,0.0,0.0,84,0.00, +TSGR FG,SKC,-99.99,VWS V12.07,2013-07-12 04:55:00,